Flag for Germany Weather past 2 weeks in Kulmbach, Bavaria, Germany

Now
30 °F

Passing clouds.


Feels Like: 24 °F
Forecast: 33 / 39 °F
Wind: 7 mph from West

Location: Hof

Current Time: Mar 3, 2015 at 5:23:21 AM

Latest Report: Mar 3, 2015 at 5:00 AM


Visibility: 22 mi

Pressure: 30.12 "Hg

Humidity: 88%

Dew point: 27 °F

Location of KulmbachLocation

Historic Weather in Kulmbach — Graph

°F

Kulmbach temperature yesterday

Maximum temperature yesterday: 41 °F (at 3:00 AM)
Minimum temperature yesterday: 31 °F (at 10:00 PM)
Average temperature yesterday: 37 °F

Past Weeks' High & Low Weather Summary

 TemperatureHumidityPressure
High44 °F (Feb 27, 3:00 PM)100% (Feb 17, 8:00 PM)30.78 "Hg (Feb 17, 8:00 PM)
Low22 °F (Feb 26, 5:00 AM)48% (Feb 27, 3:00 PM)29.47 "Hg (Feb 21, 1:00 PM)
Average33 °F85%30.03 "Hg
* Reported Feb 16 3:00 AM — Mar 3 3:00 AM, Kulmbach, Weather by CustomWeather, © 2015

Note: Actual official high and low records may vary slightly from our data, if they occured in-between our weather recording intervals... More about our weather records

Advertising

Kulmbach weather history for previous 24 hours

 ConditionsComfort  
Time TempWeatherWind HumidityBarometerVisibility
3:00 AM
Tue, Mar 3
31 °FSnow flurries. Passing clouds.8 mph92%30.07 "Hg16 mi
2:00 AM31 °FLight snow. Low clouds.8 mph93%30.04 "Hg11 mi
1:00 AM31 °FLight snow. Low clouds.7 mph92%30.01 "Hg1 mi
12:00 AM31 °FOvercast.8 mph86%29.98 "Hg22 mi
11:00 PM
Mon, Mar 2
32 °FOvercast.7 mph90%29.93 "Hg28 mi
10:00 PM31 °FSnow flurries. Low clouds.8 mph93%29.88 "Hg18 mi
9:00 PM32 °FSnow. Low clouds.8 mph99%29.83 "Hg1 mi
8:00 PM37 °FOvercast.5 mph66%29.79 "Hg43 mi
7:00 PM36 °FOvercast.2 mph65%29.80 "Hg37 mi
6:00 PM37 °FOvercast.2 mph66%29.78 "Hg37 mi
5:00 PM39 °FOvercast.5 mph70%29.77 "Hg40 mi
4:00 PM39 °FPassing clouds.8 mph67%29.75 "Hg43 mi
3:00 PM39 °FSunny.8 mph68%29.72 "Hg19 mi
2:00 PM38 °FOvercast.8 mph76%29.70 "Hg34 mi
1:00 PM38 °FScattered clouds.6 mph82%29.68 "Hg25 mi
12:00 PM38 °FOvercast.6 mph78%29.67 "Hg28 mi
11:00 AM37 °FOvercast.5 mph78%29.66 "Hg34 mi
10:00 AM37 °FOvercast.6 mph81%29.63 "Hg28 mi
9:00 AM37 °FOvercast.5 mph87%29.62 "Hg28 mi
8:00 AM37 °FOvercast.7 mph84%29.61 "Hg43 mi
7:00 AM38 °FOvercast.6 mph84%29.55 "Hg43 mi
6:00 AM40 °FDrizzle. Low clouds.5 mph92%29.50 "Hg28 mi
5:00 AM40 °FRain. Low clouds.6 mph95%29.53 "Hg2 mi
Weather by CustomWeather, © 2015

See weather overviewHow to use our weather pages